Regional Weather Roundup
Issued by NWS

Home | Current Version | Previous Version | Text Only | Print | Product List | Glossary Off
Versions: 1 2 3 4 5 6 7 8 9 10 11 12 13 14 15 16 17 18 19 20 21 22 23 24 25 26 27 28 29 30 31 32 33 34 35 36 37 38 39 40 41 42 43 44 45 46 47 48 49 50

044
ASUS45 KBOU 052207
RWRCO

WEATHER ROUNDUP FOR COLORADO
NATIONAL WEATHER SERVICE DENVER/BOULDER CO
400 PM MDT THU MAY 05 2016

NOTE: "FAIR" INDICATES FEW OR NO CLOUDS BELOW 12000 FEET WITH NO
SIGNIFICANT WEATHER AND/OR OBSTRUCTIONS TO VISIBILITY.

COZ001>005-013-030-031-052300-
...NORTHWEST COLORADO...

CITY           SKY/WX    TMP DP  RH WIND       PRES   REMARKS
CRAIG          CLOUDY    75  27  17 E3        30.06F
HAYDEN         FAIR      73  27  17 NE6       30.09F
MEEKER         FAIR      79  20  11 SW5       30.05F
MOUNT WERNER   NOT AVBL
STEAMBOAT SPGS FAIR      73  27  18 W6        30.11F
WALDEN         PTSUNNY   63  18  17 NW9       30.22F
$$

COZ006>008-011-052300-
...WEST CENTRAL VALLEYS...

CITY           SKY/WX    TMP DP  RH WIND       PRES   REMARKS
GRAND JUNCTION FAIR      83  28  13 NW10      29.93F
MONTROSE       FAIR      78  27  15 VRB6      30.03F
EAGLE          SUNNY     75  23  14 CALM      30.09F
RIFLE          FAIR      81  25  12 VRB3      30.00F
DELTA          NOT AVBL
NUCLA          NOT AVBL
$$

COZ017>023-064>068-052300-
...SOUTHWEST COLORADO...

CITY           SKY/WX    TMP DP  RH WIND       PRES   REMARKS
DURANGO        FAIR      73  24  16 SE9       30.10F
CORTEZ         FAIR      81  27  14 S15G22    30.02F
PAGOSA SPRINGS FAIR      70  17  13 S6        30.19F
TELLURIDE      CLOUDY    65  20  17 SE17G24   30.26F
WOLF CREEK PAS CLOUDY    46  21  36 S14G23    30.48F
$$

COZ009-010-012-014-032>034-037-058>063-052300-
...CENTRAL COLORADO...

CITY           SKY/WX    TMP DP  RH WIND       PRES   REMARKS
ASPEN          FAIR      70  21  15 W10G17    30.15F
BUENA VISTA    FAIR      71  15  12 E6        30.19F
COPPER MTN     NOT AVBL
BERTHOUD PASS  FAIR      41  32  70 SW8       30.49F
COTTONWOOD PAS FAIR      68  12  11 E6G18     30.31F
GUNNISON       FAIR      70  21  16 N3        30.17F
KREMMLING      FAIR      73   9   8 S9        30.15F
LEADVILLE      FAIR      60  12  15 S8        30.29F
MONARCH PASS   FAIR      46  21  36 E13       30.55F
SALIDA         FAIR      75  18  11 E3        30.23F
SUNLIGHT       FAIR      59  19  21 CALM      30.38F
WILKERSON PASS FAIR      57  18  21 W3        30.44F
$$

COZ069>075-052300-
...SAN LUIS VALLEY/SANGRE DE CRISTO MOUNTAINS...

CITY           SKY/WX    TMP DP  RH WIND       PRES   REMARKS
ALAMOSA        FAIR      71  18  13 E6G18     30.18F
LA VETA PASS   PTSUNNY   57  27  30 NE8       30.36F
SAGUACHE       FAIR      70  23  17 SE5       30.21F
$$

COZ035-036-038>040-052300-
...NORTHERN COLORADO FRONT RANGE...

CITY           SKY/WX    TMP DP  RH WIND       PRES   REMARKS
DENVER INTL AP PTSUNNY   79  31  17 E8        30.05F
DMNS CITY PARK   N/A     79  27  14 NE8G17    30.03F
AURORA         FAIR      79  33  18 E10       30.06F
FRONT RANGE AP NOT AVBL
ERIE MUNI ARPT FAIR      80  27  14 E5        30.02F
BOULDER MUN AP FAIR      79  30  17 SE3       30.03F
CENTENNIAL     PTSUNNY   78  22  12 E9        30.06F
BROOMFIELD     PTSUNNY   79  30  17 E8G16     30.06F
FORT COLLINS   FAIR      81  39  22 SE13      30.00F
LONGMONT       FAIR      81  33  17 SE5       30.03F
$$

COZ041-046-047-076>085-087-088-052300-
...PIKES PEAK/PALMER DIVIDE AND SOUTHERN FOOTHILLS...

CITY           SKY/WX    TMP DP  RH WIND       PRES   REMARKS
COLO. SPRINGS  FAIR      77  24  14 SE12      30.10F
A. F. ACADEMY  FAIR      77  28  16 E13G20    30.10F
SCHRIEVER AFB  NOT AVBL
ELLICOTT       FAIR     N/A N/A N/A SE8G16    30.10F
FALCON         NOT AVBL
FORT CARSON    FAIR      79  32  18 E13       30.06F
LIMON          FAIR      76  34  21 SE9       30.08F
MONUMENT HILL  FAIR      68  32  26 E8        30.17F
TRINIDAD       FAIR      79  24  13 E6        30.07F
$$

COZ042>045-048>051-090-091-052300-
...NORTHEAST COLORADO...

CITY           SKY/WX    TMP DP  RH WIND       PRES   REMARKS
GREELEY ARPT   FAIR      82  37  20 S10       30.02F
AKRON          FAIR      81  36  19 S14G23    30.03F
BURLINGTON     FAIR      82  34  17 SE17      30.04F
WRAY           NOT AVBL
STERLING       FAIR      81  43  26 SE10      29.98F
HOLYOKE        NOT AVBL
FORT MORGAN    FAIR      83  30  14 SW3       30.02F
$$

COZ086-089-092>099-052300-
...SOUTHEAST COLORADO...

CITY           SKY/WX    TMP DP  RH WIND       PRES   REMARKS
PUEBLO         FAIR      84  32  15 MISG      30.00F
LA JUNTA       FAIR      84  37  18 E7        30.00F
LAMAR          FAIR      84  41  21 SE12      29.98F
SPRINGFIELD      N/A     81  38  21 S5        30.02F
$$




USA.gov is the U.S. government's official web portal to all federal, state and local government web resources and services.